GW3202 Weather Reports


Display with metric or nautical units.
time (UTC)temp
F
wind
direction
speed
MPH
gust
MPH
rain 1hr
in
rain 24hr
in
rain mn
in
humidity
%
barometer
mb
20260508182004 87 197 2.0 12.0 0.00 0.00 0.00 37 1017.8
20260508181004 86 211 5.0 12.0 0.00 0.00 0.00 38 1017.9
20260508180002 84 314 3.0 8.0 0.00 0.00 0.00 37 1017.9
20260508174002 85 264 1.0 6.0 0.00 0.00 0.00 38 1018.1
20260508172002 83 317 1.0 7.0 0.00 0.00 0.00 41 1018.4
20260508171003 82 240 3.0 8.0 0.00 0.00 0.00 42 1018.4
20260508170002 82 250 1.0 7.0 0.00 0.00 0.00 45 1018.5
20260508164002 80 287 2.0 3.0 0.00 0.00 0.00 48 1018.7
20260508163003 78 267 1.0 6.0 0.00 0.00 0.00 49 1018.7
20260508162003 77 2 2.0 6.0 0.00 0.00 0.00 51 1018.9
20260508161003 78 210 1.0 3.0 0.00 0.00 0.00 49 1019.0
20260508160002 76 97 2.0 5.0 0.00 0.00 0.00 51 1019.1
20260508155004 75 291 3.0 5.0 0.00 0.00 0.00 52 1019.1
20260508153003 73 92 2.0 5.0 0.00 0.00 0.00 56 1019.2
20260508151003 74 16 1.0 3.0 0.00 0.00 0.00 55 1019.1
20260508145003 69 15 1.0 3.0 0.00 0.00 0.00 62 1019.1
20260508144002 69 49 1.0 3.0 0.00 0.00 0.00 62 1019.0
20260508143003 71 26 1.0 3.0 0.00 0.00 0.00 61 1019.1
20260508142003 70 123 1.0 2.0 0.00 0.00 0.00 62 1019.0
20260508140003 68 131 1.0 3.0 0.00 0.00 0.00 64 1019.1
20260508135004 65 157 0.0 2.0 0.00 0.00 0.00 68 1019.1
20260508132003 62 75 0.0 2.0 0.00 0.00 0.00 72 1018.9
20260508130004 60 236 0.0 1.0 0.00 0.00 0.00 74 1018.8
20260508125005 60 261 0.0 2.0 0.00 0.00 0.00 75 1018.7
20260508124005 60 241 1.0 2.0 0.00 0.00 0.00 75 1018.7
20260508123003 60 88 0.0 3.0 0.00 0.00 0.00 75 1018.5
20260508121003 60 120 1.0 3.0 0.00 0.00 0.00 74 1018.5
20260508120002 60 117 3.0 3.0 0.00 0.00 0.00 74 1018.6
20260508115003 60 101 2.0 3.0 0.00 0.00 0.00 74 1018.6
20260508114003 59 108 0.0 2.0 0.00 0.00 0.00 75 1018.5
20260508113005 60 127 1.0 2.0 0.00 0.00 0.00 74 1018.4
20260508112004 60 180 0.0 2.0 0.00 0.00 0.00 75 1018.4
20260508111003 60 270 1.0 1.0 0.00 0.00 0.00 74 1018.4
20260508110003 60 264 0.0 2.0 0.00 0.00 0.00 73 1018.4
20260508105003 61 273 0.0 2.0 0.00 0.00 0.00 72 1018.3
20260508104003 61 209 0.0 1.0 0.00 0.00 0.00 72 1018.1
20260508103002 61 102 0.0 2.0 0.00 0.00 0.00 72 1018.1
20260508102003 62 142 2.0 3.0 0.00 0.00 0.00 71 1018.1
20260508101004 62 43 1.0 2.0 0.00 0.00 0.00 70 1018.0
20260508100003 62 109 1.0 3.0 0.00 0.00 0.00 69 1017.8
20260508094003 61 237 0.0 1.0 0.00 0.00 0.00 70 1017.8
20260508093003 61 285 0.0 2.0 0.00 0.00 0.00 70 1017.8
20260508092004 62 257 0.0 3.0 0.00 0.00 0.00 66 1017.9
20260508091005 63 172 0.0 1.0 0.00 0.00 0.00 64 1018.2
20260508085003 63 157 1.0 3.0 0.00 0.00 0.00 63 1018.2
20260508084003 63 125 2.0 3.0 0.00 0.00 0.00 63 1018.2
20260508083003 63 101 0.0 3.0 0.00 0.00 0.00 63 1018.4
20260508082003 63 122 0.0 3.0 0.00 0.00 0.00 63 1018.3
20260508080003 64 215 0.0 2.0 0.00 0.00 0.00 61 1018.5
20260508075003 64 200 0.0 2.0 0.00 0.00 0.00 60 1018.6
20260508072003 64 102 1.0 7.0 0.00 0.00 0.00 59 1019.0
20260508071004 64 113 1.0 5.0 0.00 0.00 0.00 60 1019.1
20260508070006 65 77 1.0 2.0 0.00 0.00 0.00 62 1019.1
20260508065003 65 261 0.0 2.0 0.00 0.00 0.00 60 1019.1
20260508063003 65 262 0.0 2.0 0.00 0.00 0.00 56 1019.4
20260508062004 65 102 0.0 3.0 0.00 0.00 0.00 55 1019.3
20260508060004 65 140 1.0 3.0 0.00 0.00 0.00 55 1019.6
20260508055003 66 154 2.0 3.0 0.00 0.00 0.00 54 1019.6
20260508054003 66 156 2.0 3.0 0.00 0.00 0.00 56 1019.8
20260508053004 66 242 2.0 5.0 0.00 0.00 0.00 58 1019.8
20260508052004 67 251 1.0 2.0 0.00 0.00 0.00 57 1019.8
20260508051003 68 0 1.0 2.0 0.00 0.00 0.00 54 1019.9
20260508050003 68 251 0.0 3.0 0.00 0.00 0.00 53 1019.9
20260508045003 69 139 2.0 5.0 0.00 0.00 0.00 48 1019.7
20260508044004 70 145 0.0 6.0 0.00 0.00 0.00 47 1019.7
20260508043003 70 131 2.0 7.0 0.00 0.00 0.00 48 1019.6
20260508042003 70 339 4.0 10.0 0.00 0.00 0.00 47 1019.3
20260508041004 70 148 4.0 14.0 0.00 0.00 0.00 47 1018.8
20260508040003 70 161 7.0 20.0 0.00 0.00 0.00 47 1018.7
20260508035003 70 121 10.0 26.0 0.00 0.00 0.00 47 1018.8
20260508034003 71 132 7.0 26.0 0.00 0.00 0.00 48 1018.7
20260508033005 71 144 19.0 23.0 0.00 0.00 0.00 53 1018.3
20260508032004 71 155 6.0 24.0 0.00 0.00 0.00 53 1018.1
20260508031003 71 121 8.0 28.0 0.00 0.00 0.00 54 1018.0
20260508030003 71 143 13.0 25.0 0.00 0.00 0.00 54 1017.8
20260508025004 71 172 8.0 25.0 0.00 0.00 0.00 54 1017.6
20260508024003 71 169 9.0 25.0 0.00 0.00 0.00 54 1017.7
20260508023004 71 153 17.0 26.0 0.00 0.00 0.00 54 1017.6
20260508021003 72 142 16.0 29.0 0.00 0.00 0.00 57 1017.4
20260508020003 72 132 7.0 24.0 0.00 0.00 0.00 57 1017.3
20260508015003 72 127 13.0 23.0 0.00 0.00 0.00 55 1017.3
20260508013004 73 135 9.0 24.0 0.00 0.00 0.00 59 1016.8
20260508011003 74 143 13.0 28.0 0.00 0.00 0.00 56 1016.4
20260508010003 75 127 12.0 28.0 0.00 0.00 0.00 54 1016.3
20260508005003 77 124 11.0 20.0 0.00 0.00 0.00 52 1016.2
20260508004004 77 149 10.0 23.0 0.00 0.00 0.00 51 1016.1
20260508003003 77 163 9.0 26.0 0.00 0.00 0.00 51 1015.9
20260508002004 78 131 7.0 26.0 0.00 0.00 0.00 51 1015.9
20260508000003 79 135 9.0 22.0 0.00 0.00 0.00 48 1015.7
20260507234003 80 143 9.0 24.0 0.00 0.00 0.00 47 1015.7
20260507233003 80 177 7.0 22.0 0.00 0.00 0.00 46 1016.0
20260507232005 81 147 11.0 24.0 0.00 0.00 0.00 45 1016.1
20260507230004 82 170 12.0 24.0 0.00 0.00 0.00 42 1016.0
20260507225010 83 191 9.0 22.0 0.00 0.00 0.00 41 1016.0
20260507223005 83 168 8.0 22.0 0.00 0.00 0.00 41 1015.9
20260507222004 84 168 5.0 22.0 0.00 0.00 0.00 40 1016.2
20260507215004 84 168 7.0 23.0 0.00 0.00 0.00 44 1016.6
20260507214003 84 161 12.0 25.0 0.00 0.00 0.00 45 1016.5
20260507213005 83 156 17.0 25.0 0.00 0.00 0.00 47 1016.5
20260507212004 85 174 8.0 20.0 0.00 0.00 0.00 44 1016.4
20260507210005 86 152 8.0 21.0 0.00 0.00 0.00 40 1017.0
20260507205004 86 189 7.0 21.0 0.00 0.00 0.00 39 1017.2
20260507204004 86 149 9.0 21.0 0.00 0.00 0.00 39 1017.0
20260507203004 86 164 7.0 20.0 0.00 0.00 0.00 37 1017.2
20260507202004 86 179 7.0 16.0 0.00 0.00 0.00 36 1017.4
20260507201003 87 161 6.0 20.0 0.00 0.00 0.00 36 1017.6
20260507200003 86 166 6.0 18.0 0.00 0.00 0.00 36 1017.7
20260507194004 87 148 5.0 16.0 0.00 0.00 0.00 34 1018.0
20260507192004 87 176 6.0 17.0 0.00 0.00 0.00 33 1018.1
20260507191003 88 160 3.0 9.0 0.00 0.00 0.00 33 1018.3
20260507185004 88 290 2.0 12.0 0.00 0.00 0.00 29 1018.6
20260507184003 86 168 6.0 12.0 0.00 0.00 0.00 30 1018.5
20260507183003 87 173 3.0 12.0 0.00 0.00 0.00 29 1018.6